Погода в Образцово-Травине

Россия / Астраханская область     45°57′43″N   48°00′12″E
темп.,
°C
ветер,
м/с
пор.,
м/с
влажн.,
%
обл.,
%
осадки,
мм/ч
давл.,
гПа
погр.,
м
2 марта, вт
вт201:00+1зюз229550 0.0 102623
04:00+2зсз229573 0.0 102686
07:00+1зюз2498100 0.1 1026235
10:00+1зюз4695100 0.4 1027328
13:00+4з566690 0.1 1026929
16:00+4з796291 0.1 10241274
19:00+3зюз4978100 0.1 1022681
22:00+3юз4973100 0.1 1021380
3 марта, ср
ср301:00+3юз7137695 0.1 1019502
04:00+3зюз7148298 0.1 1017709
07:00+2зюз81479100 0.0 1015825
10:00+1з101595100 0.3 1016957
13:00+4з101677100 0.1 10141418
16:00+4з9137499 0.2 10141251
19:00+2зсз5108897 0.1 1015654
22:00+1сз8129598 1.0 1018775
4 марта, чт
чт401:00−1зсз5108432 0.1 1019427
04:00−1зсз6118555 0.1 1021536
07:00−2зсз49840 0.0 1023484
10:00+1зсз68600 0.0 1025861
13:00+3з68510 0.0 1025983
16:00+5зюз67410 0.0 1023931
19:00+2юз46540 0.0 1023114
22:00+1ююз510680 0.0 1023210
5 марта, пт
пт501:000ююз611710 0.0 1022271
04:000ююз511770 0.0 1022280
07:000ююз511800 0.0 1021259
10:00+4юз710570 0.0 1022505
13:00+8зюз79430 0.0 10211142
16:00+9юз67430 0.0 10201190
19:00+4ююз610640 0.0 1020274
22:00+3ююз59760 0.0 1021202
6 марта, сб
сб601:00+2ююз59870 0.0 1020192
04:00+1ююз47900 0.0 1019147
07:00+1ююз479144 0.0 1019130
10:00+5ю6107252 0.0 1019366
13:00+9ююз9126340 0.0 1017546
16:00+8ююз8116658 0.0 1015425
19:00+5ююз6978100 0.0 1013290
22:00+5ююз5978100 0.0 1013212